星链-11400 (STARLINK-11400)

导读

STARLINK-11400是美国于2025年2月15日发射的星链卫星,隶属于SpaceX公司的星链低轨互联网星座项目。星链计划旨在构建全球覆盖的卫星通信网络,为偏远地区等提供宽带互联网服务,这类卫星通常部署在近地轨道,通过大量组网实现全球无缝通信覆盖。

Basic Information
目录编号:
63017
目录名称:
STARLINK-11400
国际标识:
2025-032N
轨道中心:
EARTH
卫星名称:
星链-11400
卫星全名:
星链-11400 (STARLINK-11400)
卫星状态:
在轨 (已飞行567 天)
发射日期:
2025-02-15 UTC
国别 :
美国 (US)
星等 :
--
Orbit Information
数据来源 国际轨道数据
星历时间: 2026-09-05T12:49:03+0800
5小时前
查看轨道信息
半长轴: 6734.397km
偏心率: 0.0002889
轨道倾角: 43.000°
近地点辐角 250.415°
升交点赤经 193.535°
平近点角 109.640°
近地点: 354.314km
远地点: 358.206km
周期: 91.666分钟
每日圈数: 15.709225
Detailed Information
固有亮度:
5
最大亮度:
2.5
卫星平台:
Starlink V1.0
覆盖范围:
全球
运营商:
太空探索技术公司
运营商所在国:
美国
制造商(研发单位):
太空探索技术公司
制造商所在国:
美国
使用方式:
暂无
Satellite Introduction
Starlink 计划是 SpaceX 推出的全球卫星互联网项目,通过发射低轨道卫星,为全球尤其是偏远地区提供高速、低延迟的互联网服务。自 2019 年起,Starlink 已部署数千颗卫星,旨在缩小全球数字鸿沟,推动互联网普及。该项目还为军事、航空等行业提供通信支持,带来广泛经济效益。
2D Orbit Map
3D Orbit Map
Orbit Altitude Analysis Chart
Orbit Inclination Analysis Chart
Orbit Comprehensive Analysis Chart
View Comprehensive Chart
Conjunction Data List
Event ID Objects TCA Miss Dist (km) Collision Risk Probability Collision Risk Index (CRI) Action
CDM_260901-231606-255706-301721
2026-09-01T
23:16:56+0000
1.774 km
极远距离
1.96558E-6 低风险 0.41